星链-1626 (STARLINK-1626 )

导读 | 星芒AI

STARLINK-1626 是 SpaceX Starlink 项目中的第 1626 颗卫星,属于其低轨卫星互联网星座的一部分。该卫星于 2023 年发射,运行在约 550 公里的近地轨道上,旨在为全球用户提供高速互联网服务。Starlink 卫星采用先进推进系统和激光通信技术,以提高网络效率和稳定性。该项目致力于改善偏远地区的网络接入,同时支持军事和应急通信需求。STARLINK-1626 的部署进一步扩展了 Starlink 的覆盖范围和系统冗余能力。

基本信息
目录编号:
46167
目录名称:
STARLINK-1626
国际标识:
2020-057BC
轨道中心:
EARTH
卫星名称:
星链-1626
卫星全名:
星链-1626 (STARLINK-1626 )
卫星状态:
在轨 (已飞行1946 天)
发射日期:
2020-08-18 UTC
国别 :
美国 (US)
星等 :
--
轨道信息
数据来源 国际轨道数据
星历时间: 2025-12-16T08:00:03+0800
8小时前
查看轨道信息
半长轴: 6894.691km
偏心率: 0.000193
轨道倾角: 53.055°
近地点辐角 66.656°
升交点赤经 332.135°
平近点角 25.575°
近地点: 515.225km
远地点: 517.887km
周期: 94.958分钟
每日圈数: 15.164587
详细信息
固有亮度:
5
最大亮度:
2.5
卫星平台:
Starlink V1.0
覆盖范围:
全球
运营商:
太空探索技术公司
运营商所在国:
美国
制造商(研发单位):
太空探索技术公司
制造商所在国:
美国
使用方式:
暂无
卫星简介
星链(Starlink)计划是由太空探索技术公司(SpaceX)提出的一个巨型低轨卫星互联网星座项目,计划在2019年至2024年间在太空搭建由约1.2万颗卫星组成的“星链”网络,其中1584颗将部署在地球上空550千米处的近地轨道,并从2020年开始工作。该卫星仍在工作。
2D轨道图
3D轨道图
轨道高度分析图
轨道倾角分析图
轨道综合分析图
查看轨道综合分析图